Location: Unspecified
(51.0950°N, 12.9690°E)
Time: 15:33:11
(UTC+00:00)

NOSS 2-3 (C) - Pass Details

Date: 28 October 2021
Orbit: 536 x 1675 km, 63.3° (Epoch: 25 November)

Event Time Altitude Azimuth Distance (km) Brightness Sun altitude
Rises 17:14:22 0° 231° (SW) 2,709 7.8 -13.9°
Reaches altitude 10° 17:16:25 10° 234° (SW) 1,865 6.9 -14.2°
Maximum altitude 17:20:29 70° 318° (NW) 678 3.8 -14.8°
Enters shadow 17:24:51 13° 42° (NE) 2,015 5.8 -15.5°
